Flag for Brazil Weather past 2 weeks in Rio de Janeiro, Rio de Janeiro, Brazil

Now
64 °F

Light rain. Fog.


Feels Like: 64 °F
Forecast: N/A
Wind: No wind

Location: Rio De Janeiro Airport

Current Time: Jul 5, 2015 at 7:14:23 PM

Latest Report: Jul 5, 2015 at 6:00 PM


Visibility: 3 mi

Pressure: N/A

Humidity: 83%

Dew point: 59 °F

Location of Rio de JaneiroLocation

Historic Weather in Rio de Janeiro — Graph

°F

Rio de Janeiro temperature yesterday

Maximum temperature yesterday: 81 °F (at 11:00 AM)
Minimum temperature yesterday: 64 °F (at 10:00 PM)
Average temperature yesterday: 74 °F

Past Weeks' High & Low Weather Summary

 TemperatureHumidityPressure
High82 °F (Jun 23, 2:00 PM)100% (Jun 23, 6:00 AM)30.48 "Hg (Jun 23, 6:00 AM)
Low63 °F (Jun 27, 6:00 AM)55% (Jul 1, 10:00 AM)29.83 "Hg (Jul 4, 2:00 AM)
Average71 °F79%30.17 "Hg
* Reported Jun 20 6:00 PM — Jul 5 6:00 PM, Rio de Janeiro, Weather by CustomWeather, © 2015

Note: Actual official high and low records may vary slightly from our data, if they occured in-between our weather recording intervals... More about our weather records

Advertising

Rio de Janeiro weather history for previous 24 hours

 ConditionsComfort  
Time TempWeatherWind HumidityBarometerVisibility
6:00 PM
Sun, Jul 5
64 °FLight rain. Fog.No wind83%N/A3 mi
5:00 PM63 °FLight rain. Fog.6 mph88%N/A3 mi
4:00 PM66 °FCloudy.3 mph78%30.15 "Hg6 mi
3:00 PM68 °FCloudy.1 mph73%30.15 "Hg6 mi
2:00 PM68 °FCloudy.2 mph73%30.15 "Hg6 mi
1:00 PM68 °FMostly cloudy.3 mph73%30.15 "Hg6 mi
12:00 PM68 °FMostly cloudy.3 mph73%30.18 "Hg6 mi
11:00 AM66 °FMostly cloudy.6 mph78%30.21 "Hg6 mi
10:00 AM66 °FMore clouds than sun.7 mph78%30.21 "Hg6 mi
9:00 AM64 °FBroken clouds.7 mph83%30.18 "Hg6 mi
8:00 AM64 °FMore clouds than sun.9 mph83%30.18 "Hg5 mi
7:00 AM64 °FMore clouds than sun.10 mph83%30.18 "Hg5 mi
6:00 AM64 °FPartly sunny.3 mph83%30.15 "Hg5 mi
5:00 AM64 °FFog.5 mph83%30.15 "Hg3 mi
4:00 AM63 °FFog.10 mph88%30.15 "Hg3 mi
3:00 AM63 °FFog.9 mph83%30.15 "Hg3 mi
2:00 AM63 °FLight rain. Fog.1 mph83%30.15 "Hg2 mi
1:00 AM63 °FLight rain. Fog.13 mph83%30.15 "Hg2 mi
12:00 AM64 °FPassing clouds.10 mph73%30.15 "Hg4 mi
11:00 PM
Sat, Jul 4
64 °FLight rain. Fog.6 mph83%30.12 "Hg2 mi
10:00 PM64 °FLight rain. Fog.8 mph88%30.12 "Hg2 mi
9:00 PM66 °FLight rain. Fog.12 mph94%N/A2 mi
8:00 PM66 °FDrizzle. Mostly cloudy.10 mph94%N/A2 mi
7:00 PM68 °FDrizzle. Mostly cloudy.15 mph94%N/A3 mi
Weather by CustomWeather, © 2015

See weather overviewHow to use our weather pages